Danville, KY

3:10 AM EST on December 06, 2016 (GMT -0500)
Powell

Weather History for KDVK - January, 2013

Change the Weather History Date:

Thursday, January 31, 2013

  Actual Average (KLEX) Record (KLEX)
Temperature  
Mean Temperature 28 °F 34 °F  
Max Temperature 33 °F 42 °F 71 °F (2002)
Min Temperature 24 °F 25 °F -10 °F (1965)
Degree Days  
Heating Degree Days 36 31  
Month to date heating degree days 990  
Since 1 July heating degree days 2783  
Cooling Degree Days 0 0  
Month to date cooling degree days 0  
Year to date cooling degree days 0  
Moisture  
Dew Point 23 °F    
Average Humidity 73    
Maximum Humidity 100    
Minimum Humidity 60    
Precipitation  
Precipitation 0.00 in 0.12 in 2.13 in (1951)
Month to date precipitation 3.20  
Year to date precipitation 3.20  
Snow  
Snow 0.00 in 0.20 in 5.00 in (1948)
Month to date snowfall 3.9  
Since 1 July snowfall 6.7  
Snow Depth -    
Sea Level Pressure  
Sea Level Pressure 29.93 in    
Wind  
Wind Speed 15 mph (West)    
Max Wind Speed 24 mph    
Max Gust Speed 40 mph    
Visibility 9 miles    
Events Snow    
T = Trace of Precipitation, MM = Missing Value Source: NWS Daily Summary

Daily Weather History Graph

Daily Weather History Graph

Search for Another Location

Airport or City:

Trip Planner

Search our weather history database for the weather conditions in past years. The results will help you decide how hot, cold, wet, or windy it might be!

Date:

Astronomy

Jan. 31, 2013 Rise Set
Actual Time 7:43 AM EST 6:02 PM EST
Civil Twilight 7:15 AM EST 6:29 PM EST
Nautical Twilight 6:44 AM EST 7:01 PM EST
Astronomical Twilight 6:13 AM EST 7:32 PM EST
Moon 10:56 PM EST (1/31) 9:49 AM EST (1/31)
Length of Visible Light 11h 14m
Length of Day
10h 18m
Waning Gibbous, 80% of the Moon is Illuminated
Jan 31
Waning Gibbous
Feb 3
Last Quarter
Feb 10
New
Feb 17
First Quarter
Feb 25
Full

Hourly Weather History & Observations

Time (EST) Temp. Windchill Dew Point Humidity Pressure Visibility Wind Dir Wind Speed Gust Speed Precip Events Conditions
12:15 AM 32.0 °F 19.8 °F 26.6 °F 80% 29.71 in 10.0 mi West 20.7 mph 26.5 mph N/A   Overcast
12:35 AM 32.0 °F 20.8 °F 28.4 °F 87% 29.73 in 10.0 mi West 17.3 mph 32.2 mph N/A   Overcast
12:55 AM 32.0 °F 23.0 °F 26.6 °F 80% 29.75 in 10.0 mi West 11.5 mph 27.6 mph N/A   Overcast
1:15 AM 32.0 °F 20.5 °F 26.6 °F 80% 29.76 in 10.0 mi West 18.4 mph 24.2 mph N/A Snow Light Snow
1:35 AM 32.0 °F 20.1 °F 24.8 °F 75% 29.77 in 10.0 mi West 19.6 mph 31.1 mph N/A   Overcast
1:55 AM 32.0 °F 18.9 °F 23.0 °F 69% 29.78 in 10.0 mi WNW 24.2 mph 29.9 mph N/A   Overcast
2:15 AM 32.0 °F 23.0 °F 24.8 °F 75% 29.79 in 10.0 mi West 11.5 mph 24.2 mph N/A Snow Light Snow
2:35 AM 32.0 °F 20.1 °F 26.6 °F 80% 29.80 in 7.0 mi West 19.6 mph 33.4 mph N/A Snow Light Snow
2:55 AM 32.0 °F 21.6 °F 24.8 °F 75% 29.81 in 10.0 mi WNW 15.0 mph 32.2 mph N/A Snow Light Snow
3:15 AM 30.2 °F 18.1 °F 23.0 °F 75% 29.82 in 10.0 mi WNW 18.4 mph 25.3 mph N/A Snow Light Snow
3:35 AM 30.2 °F 19.8 °F 23.0 °F 75% 29.83 in 10.0 mi WNW 13.8 mph 24.2 mph N/A Snow Light Snow
3:55 AM 30.2 °F 19.3 °F 23.0 °F 75% 29.84 in 10.0 mi WNW 15.0 mph 25.3 mph N/A Snow Light Snow
4:15 AM 30.2 °F 20.8 °F 21.2 °F 69% 29.84 in 10.0 mi WNW 11.5 mph - N/A Snow Light Snow
4:35 AM 28.4 °F 16.6 °F 23.0 °F 80% 29.85 in 7.0 mi WNW 16.1 mph 21.9 mph N/A Snow Light Snow
4:55 AM 28.4 °F 20.4 °F 23.0 °F 80% 29.86 in 7.0 mi West 8.1 mph 18.4 mph N/A Snow Light Snow
5:15 AM 28.4 °F 19.7 °F 24.8 °F 86% 29.86 in 5.0 mi West 9.2 mph - N/A Snow Light Snow
5:35 AM 28.4 °F 18.0 °F 21.2 °F 74% 29.87 in 10.0 mi West 12.7 mph 23.0 mph N/A Snow Light Snow
5:55 AM 28.4 °F 15.8 °F 17.6 °F 64% 29.87 in 10.0 mi WNW 18.4 mph 32.2 mph N/A   Overcast
6:15 AM 28.4 °F 17.5 °F 19.4 °F 69% 29.88 in 10.0 mi West 13.8 mph 23.0 mph N/A   Overcast
6:35 AM 28.4 °F 20.4 °F 21.2 °F 74% 29.89 in 10.0 mi West 8.1 mph 23.0 mph N/A Snow Light Snow
6:55 AM 28.4 °F 18.5 °F 21.2 °F 74% 29.90 in 7.0 mi West 11.5 mph 17.3 mph N/A Snow Light Snow
7:15 AM 28.4 °F 19.1 °F 21.2 °F 74% 29.91 in 10.0 mi West 10.4 mph 16.1 mph N/A Snow Light Snow
7:35 AM 28.4 °F 18.0 °F 21.2 °F 74% 29.91 in 10.0 mi West 12.7 mph 18.4 mph N/A   Overcast
7:55 AM 30.2 °F 18.9 °F 19.4 °F 64% 29.92 in 10.0 mi West 16.1 mph 26.5 mph N/A   Overcast
8:15 AM 30.2 °F 21.3 °F 19.4 °F 64% 29.93 in 10.0 mi West 10.4 mph 21.9 mph N/A   Overcast
8:35 AM 30.2 °F 19.3 °F 19.4 °F 64% 29.94 in 10.0 mi West 15.0 mph 21.9 mph N/A   Overcast
8:55 AM 28.4 °F 18.5 °F 19.4 °F 69% 29.96 in 10.0 mi West 11.5 mph 23.0 mph N/A   Overcast
9:15 AM 28.4 °F 17.0 °F 19.4 °F 69% 29.97 in 7.0 mi WNW 15.0 mph 24.2 mph N/A Snow Light Snow
9:35 AM 28.4 °F 17.5 °F 21.2 °F 74% 29.97 in 5.0 mi West 13.8 mph 18.4 mph N/A Snow Light Snow
9:55 AM 30.2 °F 19.8 °F 21.2 °F 69% 29.99 in 10.0 mi West 13.8 mph 24.2 mph N/A Snow Light Snow
10:15 AM 30.2 °F 18.5 °F 21.2 °F 69% 29.99 in 10.0 mi West 17.3 mph 27.6 mph N/A   Overcast
10:35 AM 30.2 °F 21.3 °F 21.2 °F 69% 29.99 in 10.0 mi West 10.4 mph 23.0 mph N/A   Overcast
10:55 AM 30.2 °F 18.5 °F 19.4 °F 64% 30.00 in 10.0 mi West 17.3 mph 27.6 mph N/A   Overcast
11:15 AM 32.0 °F 21.6 °F 19.4 °F 60% 30.01 in 10.0 mi West 15.0 mph 21.9 mph N/A   Overcast
11:35 AM 30.2 °F 21.3 °F 21.2 °F 69% 30.01 in 10.0 mi West 10.4 mph 20.7 mph N/A   Overcast
11:55 AM 32.0 °F 22.5 °F 21.2 °F 64% 30.01 in 10.0 mi West 12.7 mph 18.4 mph N/A   Overcast
12:15 PM 32.0 °F 21.2 °F 21.2 °F 64% 30.01 in 10.0 mi West 16.1 mph 20.7 mph N/A   Overcast
12:35 PM 32.0 °F 21.2 °F 21.2 °F 64% 30.00 in 10.0 mi West 16.1 mph 27.6 mph N/A Snow Light Snow
12:55 PM 32.0 °F 21.2 °F 23.0 °F 69% 29.99 in 10.0 mi West 16.1 mph 24.2 mph N/A   Overcast
1:15 PM 32.0 °F 20.5 °F 21.2 °F 64% 29.99 in 10.0 mi West 18.4 mph 25.3 mph N/A   Overcast
1:35 PM 32.0 °F 20.1 °F 21.2 °F 64% 29.99 in 10.0 mi West 19.6 mph 32.2 mph N/A   Overcast
1:55 PM 32.0 °F 20.8 °F 21.2 °F 64% 29.97 in 10.0 mi West 17.3 mph 28.8 mph N/A   Overcast
2:15 PM 32.0 °F 21.2 °F 21.2 °F 64% 29.96 in 10.0 mi West 16.1 mph 21.9 mph N/A   Mostly Cloudy
2:35 PM 33.8 °F 25.3 °F 21.2 °F 60% 29.97 in 10.0 mi West 11.5 mph 21.9 mph N/A   Overcast
2:55 PM 33.8 °F 24.3 °F 21.2 °F 60% 29.97 in 10.0 mi West 13.8 mph 19.6 mph N/A   Overcast
3:15 PM 33.8 °F 25.3 °F 21.2 °F 60% 29.97 in 10.0 mi West 11.5 mph 20.7 mph N/A   Overcast
3:35 PM 33.8 °F 23.5 °F 21.2 °F 60% 29.97 in 10.0 mi West 16.1 mph 23.0 mph N/A   Overcast
3:55 PM 33.8 °F 24.8 °F 21.2 °F 60% 29.97 in 10.0 mi West 12.7 mph 23.0 mph N/A   Overcast
4:15 PM 33.8 °F 25.8 °F 21.2 °F 60% 29.96 in 10.0 mi West 10.4 mph 20.7 mph N/A   Mostly Cloudy
4:35 PM 33.8 °F 24.3 °F 21.2 °F 60% 29.96 in 10.0 mi West 13.8 mph 18.4 mph N/A   Mostly Cloudy
4:55 PM 33.8 °F 25.8 °F 21.2 °F 60% 29.95 in 10.0 mi West 10.4 mph 20.7 mph N/A   Mostly Cloudy
5:15 PM 33.8 °F 27.0 °F 21.2 °F 60% 29.95 in 10.0 mi West 8.1 mph - N/A   Mostly Cloudy
5:35 PM 33.8 °F 25.8 °F 23.0 °F 65% 29.96 in 10.0 mi WSW 10.4 mph - N/A   Overcast
5:55 PM 33.8 °F 25.8 °F 23.0 °F 65% 29.96 in 10.0 mi WSW 10.4 mph 18.4 mph N/A   Overcast
6:15 PM 33.8 °F 25.8 °F 23.0 °F 65% 29.96 in 10.0 mi West 10.4 mph - N/A   Overcast
6:35 PM 33.8 °F 25.8 °F 23.0 °F 65% 29.96 in 10.0 mi WSW 10.4 mph 19.6 mph N/A   Overcast
6:55 PM 33.8 °F 27.0 °F 23.0 °F 65% 29.96 in 10.0 mi WSW 8.1 mph - N/A   Overcast
7:15 PM 33.8 °F 25.3 °F 23.0 °F 65% 29.97 in 10.0 mi WSW 11.5 mph 18.4 mph N/A   Overcast
7:35 PM 33.8 °F 25.3 °F 26.6 °F 75% 29.98 in 10.0 mi WSW 11.5 mph 21.9 mph N/A Snow Light Snow
7:55 PM 33.8 °F 26.4 °F 28.4 °F 81% 29.97 in 10.0 mi WSW 9.2 mph - N/A   Overcast
8:15 PM 33.8 °F 25.3 °F 28.4 °F 81% 29.96 in 10.0 mi WSW 11.5 mph 19.6 mph N/A Snow Light Snow
8:35 PM 32.0 °F 22.1 °F 28.4 °F 87% 29.96 in 10.0 mi WSW 13.8 mph 19.6 mph N/A Snow Light Snow
8:55 PM 32.0 °F 24.2 °F 30.2 °F 93% 29.95 in 7.0 mi WSW 9.2 mph 17.3 mph N/A Snow Light Snow
9:15 PM 32.0 °F 23.0 °F 30.2 °F 93% 29.94 in 4.0 mi WSW 11.5 mph 17.3 mph N/A Snow Light Snow
9:35 PM 32.0 °F 23.6 °F 30.2 °F 93% 29.94 in 4.0 mi WSW 10.4 mph - N/A Snow Light Snow
9:55 PM 32.0 °F 24.2 °F 30.2 °F 93% 29.94 in 5.0 mi WSW 9.2 mph - N/A Snow Light Snow
10:15 PM 32.0 °F 22.5 °F 30.2 °F 93% 29.94 in 4.0 mi West 12.7 mph 17.3 mph N/A Snow Light Snow
10:35 PM 32.0 °F 23.0 °F 32.0 °F 100% 29.96 in 0.8 mi West 11.5 mph 19.6 mph N/A Snow Snow
10:55 PM 32.0 °F 19.5 °F 28.4 °F 87% 29.96 in 2.0 mi West 21.9 mph 31.1 mph N/A Snow Light Snow
11:15 PM 28.4 °F 14.7 °F 24.8 °F 86% 30.00 in 0.5 mi NW 21.9 mph 40.3 mph N/A Snow Snow
11:35 PM 24.8 °F 9.6 °F 23.0 °F 93% 30.03 in 0.8 mi NW 23.0 mph 32.2 mph N/A Snow Light Snow
11:55 PM 24.8 °F 11.5 °F 21.2 °F 86% 30.05 in 2.0 mi NW 17.3 mph 24.2 mph N/A Snow Light Snow